    Orbital elements:
    2022 AD2                                                 Earth MOID = 0.0685 AU
    Epoch 2022 Jan. 21.0 TT = JDT 2459600.5                 Veres                   
    M   9.19283              (2000.0)            P               Q                  
    n   0.45136920     Peri.  352.34578     -0.12433413     -0.72522826             
    a   1.6831188      Node   102.69862     +0.94318005     -0.29833042             
    e   0.3765976      Incl.   43.96099     +0.30814350     +0.62051828             
    P   2.18           H   22.58          G   0.15           U   8                  
    Residuals in seconds of arc
    220107 G96  0.4-  0.5+    220107 204  0.3+  0.1-    220107 J95  0.3+  0.3+
    220107 G96  0.2-  0.1+    220107 958  0.9+  0.1+    220107 J95  0.5+  0.3-
    220107 G96 (0.6-  1.0+)   220107 G02  0.2+  0.1+    220107 J95  0.2-  0.1-
    220107 G96  0.1+  0.1-    220107 958  0.6+  0.2-    220107 Z99  0.3-  0.1-
    220107 I52  0.0   0.0     220107 G02  0.3+  0.4-    220107 Z99  0.3+  0.2+
    220107 I52  0.0   0.1+    220107 958  1.0-  0.7-    220107 Z99  0.0   0.2+
    220107 I52  0.1+  0.1-    220107 C95  0.4-  0.7+    220107 203  0.2-  0.2-
    220107 I52  0.1+  0.1-    220107 G02  0.1-  0.5-    220107 203  0.1+  0.2-
    220107 I52  0.3-  0.2-    220107 C95  0.4-  0.3+    220107 203  0.3-  0.1-
    220107 I52  0.1+  0.1+    220107 G14  0.1+  0.1-    220108 W34  0.2-  0.8+
    220107 I52  0.1-  0.2+    220107 595  0.1-  0.1+    220108 W34  0.5+  0.7+
    220107 P93  0.1+  0.7-    220107 G14  0.8-  0.1+    220108 W34  0.3+  0.3+
    220107 P93  0.2-  0.4-    220107 C95  0.1-  0.2+    220108 W33  0.7-  0.5-
    220107 P93  0.4+  0.4-    220107 595  0.2+  0.7+    220108 W33  0.2+  0.3-
    220107 P93  0.6-  0.2+    220107 G14  0.9-  0.9+    220108 W33  0.1-  0.0
    220107 B49  0.3-  0.2+    220107 595  0.6+  0.4+    220108 H21  0.1+  0.0
    220107 B49  0.3+  0.2-    220107 L01  0.3-  0.1+    220108 H21  0.0   0.0
    220107 B49  0.1-  0.3-    220107 L01  0.5-  0.2+    220108 H21  0.0   0.1+
    220107 204  0.0   0.1+    220107 L01  0.3-  0.3+    220108 H21  0.2-  0.1-
    220107 204  0.0   0.3+    220107 L01  0.2-  0.3-    220108 H21  0.1+  0.1-
    220107 B49  0.7-  0.0     220107 L01  0.2-  0.4+
    
    Ephemeris:
    2022 AD2                 a,e,i = 1.68, 0.38, 44                  q = 1.0493
    Date    TT    R. A. (2000) Decl.     Delta      r    Elong.  Phase     V
    2021 12 09    06 38 44.2 -62 54 00   0.3929  1.0746    92.2    66.3    23.0
    ...
    2021 12 24    05 32 40.1 -52 18 22   0.2062  1.0522   103.9    65.2    21.6
    ...
    2022 01 01    04 34 31.3 -28 06 20   0.1212  1.0493   120.0    54.2    20.1
    ...
    2022 01 07    03 41 32.7 +13 39 38   0.1018  1.0513   129.7    46.0    19.5
    2022 01 08    03 32 19.7 +20 58 49   0.1051  1.0520   128.5    47.0    19.6
    2022 01 09    03 23 05.2 +27 42 52   0.1102  1.0528   126.6    48.6    19.7
    ...
    2022 01 15    02 29 00.4 +53 50 43   0.1647  1.0596   113.3    58.5    20.9
    ...
    2022 01 23    01 27 42.5 +66 51 39   0.2623  1.0740   103.0    63.2    22.1
    ...
    2022 02 07    00 16 35.0 +74 47 17   0.4532  1.1158    94.3    61.8    23.3
    
    M. P. C. Staff               (C) Copyright 2022 MPC           M.P.E.C. 2022-A78
    


    Read MPEC 2022-A77 Read MPEC 2022-A79


    MPEC number:

    Enter an MPEC number in one of the following forms:

    • 1997-B01 (the full form)
    • J97B01 (the packed version of the full form)
    • B01 (the abbreviated form)